This is the latest recevied weather packets stored in our database for station/object K5BOU. If no packets are shown the sender has not sent any weather packets the latest 10 day(s).
| Time | Temp. | Humidity | Pressure | Rain* | Wind** | Luminosity | Snow |
|---|---|---|---|---|---|---|---|
| 1777572723 | 28.89° C | 77% | 1008 hPa | 0 mm | - | 816 W/m² | - |
| 1777572418 | 28.33° C | 77% | 1008.1 hPa | 0 mm | - | 745 W/m² | - |
| 1777572115 | 29.44° C | 76% | 1008.3 hPa | 0 mm | - | 878 W/m² | - |
| 1777571815 | 28.89° C | 79% | 1008.5 hPa | 0 mm | - | 859 W/m² | - |
| 1777571512 | 29.44° C | 77% | 1008.5 hPa | 0 mm | - | 307 W/m² | - |
| 1777571208 | 29.44° C | 78% | 1008.6 hPa | 0 mm | - | 843 W/m² | - |
| 1777570904 | 28.89° C | 81% | 1008.3 hPa | 0 mm | - | 821 W/m² | - |
| 1777570600 | 28.33° C | 80% | 1008.4 hPa | 0 mm | - | 545 W/m² | - |
| 1777570297 | 28.33° C | 78% | 1008.2 hPa | 0 mm | - | 670 W/m² | - |
| 1777569993 | 27.78° C | 78% | 1008.3 hPa | 0 mm | - | 666 W/m² | - |
| 1777569689 | 28.33° C | 81% | 1008.2 hPa | 0 mm | - | 388 W/m² | - |
| 1777569384 | 27.78° C | 82% | 1008 hPa | 0 mm | - | 660 W/m² | - |
| 1777569081 | 28.33° C | 80% | 1007.8 hPa | 0 mm | - | 301 W/m² | - |
| 1777568778 | 28.33° C | 81% | 1007.9 hPa | 0 mm | - | 825 W/m² | - |
| 1777568476 | 28.33° C | 80% | 1008.1 hPa | 0 mm | - | 736 W/m² | - |
| 1777568172 | 27.78° C | 81% | 1007.9 hPa | 0 mm | - | 581 W/m² | - |
| 1777567869 | 27.78° C | 82% | 1008.2 hPa | 0 mm | - | 700 W/m² | - |
| 1777567565 | 27.78° C | 82% | 1008.3 hPa | 0 mm | - | 550 W/m² | - |
| 1777567263 | 27.22° C | 83% | 1008.5 hPa | 0 mm | - | 357 W/m² | - |
| 1777566961 | 27.22° C | 83% | 1008.6 hPa | 0 mm | - | 496 W/m² | - |
| 1777566658 | 27.22° C | 85% | 1008.8 hPa | 0 mm | - | 329 W/m² | - |
| 1777566355 | 26.67° C | 85% | 1008.8 hPa | 0 mm | - | 920 W/m² | - |
| 1777566053 | 27.78° C | 86% | 1009 hPa | 0 mm | - | 285 W/m² | - |
| 1777565748 | 28.89° C | 83% | 1008.8 hPa | 0 mm | - | 1062 W/m² | - |
| 1777565444 | 27.78° C | 87% | 1008.6 hPa | 0 mm | - | 955 W/m² | - |
* Rain latest hour (hover to see other rain measurements)
** Current wind speed in m/s (hover to see current wind gust speed)